GW3825 Weather Reports


Display with metric or nautical units.
time (UTC)temp
F
wind
direction
speed
MPH
gust
MPH
rain 1hr
in
rain 24hr
in
rain mn
in
humidity
%
barometer
mb
20260906133904 71 49 3.0 6.0 0.00 0.00 0.00 98 1020.7
20260906133400 71 71 7.0 8.0 0.00 0.00 0.00 98 1020.4
20260906132855 71 53 6.0 7.0 0.00 0.00 0.00 98 1020.5
20260906132350 71 64 5.0 7.0 0.00 0.00 0.00 98 1020.7
20260906131846 71 63 6.0 10.0 0.00 0.00 0.00 98 1020.4
20260906131341 71 80 8.0 9.0 0.00 0.00 0.00 98 1020.3
20260906130837 71 54 7.0 9.0 0.00 0.00 0.00 98 1020.4
20260906130337 71 83 5.0 7.0 0.00 0.00 0.00 98 1020.3
20260906125835 71 74 5.0 7.0 0.00 0.00 0.00 98 1020.3
20260906125333 71 53 3.0 6.0 0.00 0.00 0.00 98 1020.5
20260906124828 71 57 0.0 4.0 0.00 0.00 0.00 98 1020.3
20260906124324 71 48 0.0 3.0 0.00 0.00 0.00 98 1020.3
20260906123822 71 44 5.0 6.0 0.00 0.00 0.00 99 1020.2
20260906123318 71 38 1.0 3.0 0.00 0.00 0.00 99 1020.1
20260906122817 71 16 1.0 3.0 0.00 0.00 0.00 99 1020.0
20260906122313 70 71 2.0 3.0 0.00 0.00 0.00 99 1020.1
20260906121809 70 76 2.0 3.0 0.00 0.00 0.00 99 1019.7
20260906121305 70 44 2.0 3.0 0.00 0.00 0.00 99 1019.7
20260906120800 70 54 1.0 3.0 0.00 0.00 0.00 99 1019.7
20260906120257 70 54 0.0 3.0 0.00 0.00 0.00 99 1019.8
20260906115752 70 40 2.0 2.0 0.00 0.00 0.00 99 1019.8
20260906115247 70 26 2.0 3.0 0.00 0.00 0.00 99 1019.8
20260906114741 70 57 2.0 2.0 0.00 0.00 0.00 99 1019.7
20260906114237 70 37 0.0 3.0 0.00 0.00 0.00 99 1019.6
20260906113732 70 25 1.0 2.0 0.00 0.00 0.00 99 1019.2
20260906113231 70 26 2.0 2.0 0.00 0.00 0.00 99 1019.3
20260906112730 70 31 2.0 2.0 0.00 0.00 0.00 99 1019.0
20260906112228 70 342 0.0 1.0 0.00 0.00 0.00 99 1019.2
20260906111727 70 342 0.0 2.0 0.00 0.00 0.00 99 1019.2
20260906111221 70 14 2.0 2.0 0.00 0.00 0.00 99 1019.3
20260906110717 69 56 3.0 3.0 0.00 0.00 0.00 99 1019.1
20260906110212 69 60 2.0 3.0 0.00 0.00 0.00 99 1019.0
20260906105705 69 66 0.0 1.0 0.00 0.00 0.00 99 1019.0
20260906105201 69 293 1.0 2.0 0.00 0.00 0.00 99 1019.3
20260906104701 69 74 0.0 0.0 0.00 0.00 0.00 99 1019.0
20260906104200 69 74 0.0 0.0 0.00 0.00 0.00 99 1018.9
20260906103658 69 88 1.0 2.0 0.00 0.00 0.00 99 1018.6
20260906103154 69 87 1.0 1.0 0.00 0.00 0.00 99 1018.6
20260906102649 69 63 2.0 2.0 0.00 0.00 0.00 99 1018.9
20260906102148 69 59 0.0 1.0 0.00 0.00 0.00 99 1018.7
20260906101648 69 59 0.0 1.0 0.00 0.00 0.00 99 1018.7
20260906101143 69 52 2.0 2.0 0.00 0.00 0.00 99 1018.5
20260906100639 69 83 1.0 2.0 0.00 0.00 0.00 99 1018.7
20260906100133 69 58 3.0 4.0 0.00 0.00 0.00 99 1018.5
20260906095628 69 60 4.0 4.0 0.00 0.00 0.00 99 1018.6
20260906095124 69 74 3.0 3.0 0.00 0.00 0.00 99 1018.5
20260906094622 69 68 3.0 4.0 0.00 0.00 0.00 99 1018.4
20260906094119 70 76 3.0 7.0 0.00 0.00 0.00 98 1018.3
20260906093614 70 75 5.0 7.0 0.00 0.00 0.00 98 1018.2
20260906093109 70 54 4.0 6.0 0.00 0.00 0.00 98 1018.1
20260906092603 70 70 4.0 6.0 0.00 0.00 0.00 98 1018.1
20260906092059 70 70 5.0 6.0 0.00 0.00 0.00 98 1018.3
20260906091554 71 68 4.0 6.0 0.00 0.00 0.00 97 1018.3
20260906091051 71 94 4.0 7.0 0.00 0.00 0.00 97 1018.2
20260906090550 71 69 5.0 7.0 0.00 0.00 0.00 98 1018.2
20260906090045 71 70 5.0 7.0 0.00 0.00 0.00 98 1018.3
20260906085544 71 83 5.0 7.0 0.00 0.00 0.00 98 1018.3
20260906085044 71 76 6.0 8.0 0.00 0.00 0.00 98 1018.4
20260906084539 71 49 4.0 7.0 0.00 0.00 0.00 98 1018.3
20260906084037 71 64 5.0 6.0 0.00 0.00 0.00 98 1018.4
20260906083533 72 63 4.0 7.0 0.00 0.00 0.00 98 1018.2
20260906083033 72 58 6.0 9.0 0.00 0.00 0.00 98 1018.2
20260906082529 72 78 5.0 9.0 0.00 0.00 0.00 98 1018.3
20260906082025 72 69 5.0 8.0 0.00 0.00 0.00 98 1018.2
20260906081520 72 60 8.0 9.0 0.00 0.00 0.00 98 1018.1
20260906081016 72 44 5.0 8.0 0.00 0.00 0.00 98 1018.3
20260906080512 72 62 4.0 7.0 0.00 0.00 0.00 98 1018.4
20260906080008 72 70 5.0 6.0 0.00 0.00 0.00 98 1018.4
20260906075502 72 49 4.0 6.0 0.00 0.00 0.00 99 1018.4
20260906074956 72 56 5.0 7.0 0.00 0.00 0.00 99 1018.3
20260906074451 72 62 5.0 6.0 0.00 0.00 0.00 99 1018.3
20260906073949 72 52 3.0 4.0 0.00 0.00 0.00 99 1018.3
20260906073444 72 59 3.0 4.0 0.00 0.00 0.00 99 1018.2
20260906072941 72 74 3.0 4.0 0.00 0.00 0.00 99 1018.2
20260906072436 72 72 3.0 3.0 0.00 0.00 0.00 99 1018.3
20260906071932 72 50 3.0 3.0 0.00 0.00 0.00 99 1018.5
20260906071428 72 71 3.0 3.0 0.00 0.00 0.00 98 1018.5
20260906070924 73 92 3.0 4.0 0.00 0.00 0.00 98 1018.4
20260906070419 73 53 4.0 7.0 0.00 0.00 0.00 98 1018.2
20260906065915 73 59 4.0 6.0 0.00 0.00 0.00 98 1018.6
20260906065409 73 57 4.0 4.0 0.00 0.00 0.00 99 1018.5
20260906064904 73 56 3.0 6.0 0.00 0.00 0.00 99 1018.6
20260906064400 73 60 4.0 6.0 0.00 0.00 0.00 98 1018.7
20260906063855 73 58 4.0 6.0 0.00 0.00 0.00 99 1018.6
20260906063350 73 58 3.0 4.0 0.00 0.00 0.00 99 1018.7
20260906062845 73 54 3.0 4.0 0.00 0.00 0.00 99 1018.6
20260906062344 73 57 4.0 4.0 0.00 0.00 0.00 98 1018.7
20260906061839 73 55 4.0 4.0 0.00 0.00 0.00 99 1018.6
20260906061336 73 58 4.0 4.0 0.00 0.00 0.00 99 1018.5
20260906060830 73 57 3.0 3.0 0.00 0.00 0.00 98 1018.5
20260906060328 73 62 3.0 3.0 0.00 0.00 0.00 98 1018.7
20260906055823 73 27 1.0 2.0 0.00 0.00 0.00 98 1018.6
20260906055319 73 57 4.0 4.0 0.00 0.00 0.00 98 1018.4
20260906054814 73 54 4.0 4.0 0.00 0.00 0.00 98 1018.5
20260906054309 73 55 4.0 6.0 0.00 0.00 0.00 98 1018.5
20260906053806 73 51 4.0 4.0 0.00 0.00 0.00 98 1018.4
20260906053301 73 58 2.0 3.0 0.00 0.00 0.00 98 1018.5
20260906052755 73 51 1.0 2.0 0.00 0.00 0.00 98 1018.2
20260906052247 73 53 1.0 2.0 0.00 0.00 0.00 97 1018.3
20260906051744 74 60 2.0 3.0 0.00 0.00 0.00 97 1018.5
20260906051244 74 53 2.0 2.0 0.00 0.00 0.00 97 1018.6
20260906050739 74 53 2.0 3.0 0.00 0.00 0.00 97 1018.2
20260906050234 74 55 3.0 4.0 0.00 0.00 0.00 97 1018.2
20260906045732 74 43 2.0 3.0 0.00 0.00 0.00 97 1017.7
20260906045227 74 56 3.0 3.0 0.00 0.00 0.00 97 1017.8
20260906044722 74 60 2.0 4.0 0.00 0.00 0.00 97 1017.9
20260906044218 74 62 4.0 4.0 0.00 0.00 0.00 97 1017.6
20260906043714 74 62 4.0 4.0 0.00 0.00 0.00 97 1017.7
20260906043209 75 64 4.0 6.0 0.00 0.00 0.00 97 1017.6
20260906042709 75 66 4.0 7.0 0.00 0.00 0.00 96 1017.5
20260906042203 75 52 5.0 7.0 0.00 0.00 0.00 96 1017.7
20260906041659 75 60 5.0 8.0 0.00 0.00 0.00 96 1017.7
20260906041154 75 74 6.0 8.0 0.00 0.00 0.00 96 1017.5
20260906040649 76 62 5.0 8.0 0.00 0.00 0.00 96 1017.2
20260906040144 76 76 5.0 8.0 0.00 0.00 0.00 95 1017.5
20260906035639 76 60 5.0 7.0 0.00 0.00 0.00 95 1017.4
20260906035135 76 41 7.0 8.0 0.00 0.00 0.00 95 1017.4
20260906034629 76 46 6.0 7.0 0.00 0.00 0.00 95 1017.3
20260906034124 77 56 5.0 8.0 0.00 0.00 0.00 94 1017.4
20260906033620 77 55 6.0 9.0 0.00 0.00 0.00 94 1017.2
20260906033120 78 65 7.0 9.0 0.00 0.00 0.00 93 1017.0
20260906032617 78 64 8.0 10.0 0.00 0.00 0.00 93 1017.4
20260906032116 78 76 8.0 10.0 0.00 0.00 0.00 93 1017.1
20260906031612 78 63 7.0 11.0 0.00 0.00 0.00 93 1017.0
20260906031107 78 62 7.0 9.0 0.00 0.00 0.00 93 1017.3
20260906030606 78 53 8.0 10.0 0.00 0.00 0.00 93 1017.1
20260906025601 78 52 8.0 9.0 0.00 0.00 0.00 94 1016.9
20260906025059 79 56 6.0 9.0 0.00 0.00 0.00 93 1016.9
20260906024555 79 48 4.0 6.0 0.00 0.00 0.00 94 1017.0
20260906024049 79 50 6.0 8.0 0.00 0.00 0.00 93 1016.7
20260906023545 79 55 6.0 8.0 0.00 0.00 0.00 93 1017.1
20260906023040 80 60 5.0 6.0 0.00 0.00 0.00 93 1016.8
20260906022536 80 64 4.0 4.0 0.00 0.00 0.00 92 1016.7
20260906022031 80 7 4.0 7.0 0.00 0.00 0.00 92 1016.6
20260906021526 80 50 3.0 3.0 0.00 0.00 0.00 92 1016.5
20260906021020 81 58 7.0 9.0 0.00 0.00 0.00 91 1016.6
20260906020519 81 50 5.0 8.0 0.00 0.00 0.00 91 1016.1
20260906020019 81 57 5.0 7.0 0.00 0.00 0.00 91 1016.1
20260906015518 81 48 6.0 7.0 0.00 0.00 0.00 90 1016.2
20260906015012 81 50 4.0 8.0 0.00 0.00 0.00 90 1016.0
20260906014507 82 60 3.0 6.0 0.00 0.00 0.00 90 1016.1
20260906014003 82 62 4.0 6.0 0.00 0.00 0.00 90 1015.9
20260906013458 82 32 1.0 3.0 0.00 0.00 0.00 89 1015.9
20260906012948 82 35 2.0 4.0 0.00 0.00 0.00 90 1015.6
20260906012443 82 6 3.0 3.0 0.00 0.00 0.00 90 1015.7
20260906011942 82 37 1.0 2.0 0.00 0.00 0.00 90 1015.9
20260906011438 82 13 2.0 2.0 0.00 0.00 0.00 89 1015.8
20260906010933 83 28 2.0 2.0 0.00 0.00 0.00 89 1015.6
20260906010428 83 4 1.0 2.0 0.00 0.00 0.00 89 1015.6
20260906005925 83 12 2.0 3.0 0.00 0.00 0.00 89 1015.6
20260906005424 83 37 2.0 3.0 0.00 0.00 0.00 88 1015.6
20260906004922 83 35 3.0 3.0 0.00 0.00 0.00 89 1015.7
20260906004417 83 32 3.0 3.0 0.00 0.00 0.00 89 1015.7
20260906003913 84 38 2.0 2.0 0.00 0.00 0.00 88 1015.4
20260906003408 84 55 1.0 2.0 0.00 0.00 0.00 88 1015.6
20260906002903 84 22 2.0 2.0 0.00 0.00 0.00 88 1015.5
20260906002403 85 50 1.0 2.0 0.00 0.00 0.00 87 1015.6
20260906001858 85 38 1.0 3.0 0.00 0.00 0.00 86 1015.5
20260906001353 85 34 1.0 2.0 0.00 0.00 0.00 86 1015.5
20260906000848 85 11 0.0 1.0 0.00 0.00 0.00 86 1015.7
20260906000348 86 53 2.0 3.0 0.00 0.00 0.00 85 1015.6
20260905235843 86 59 0.0 2.0 0.00 0.00 0.00 85 1015.6
20260905235337 87 32 0.0 1.0 0.00 0.00 0.00 83 1015.6
20260905234833 87 50 0.0 2.0 0.00 0.00 0.00 83 1015.5
20260905234328 87 40 2.0 3.0 0.00 0.00 0.00 83 1015.5
20260905233823 88 53 3.0 4.0 0.00 0.00 0.00 81 1015.5
20260905233318 88 56 4.0 4.0 0.00 0.00 0.00 81 1015.3
20260905232817 89 62 1.0 4.0 0.00 0.00 0.00 81 1015.6
20260905232313 89 47 2.0 3.0 0.00 0.00 0.00 79 1015.4
20260905231809 89 26 2.0 3.0 0.00 0.00 0.00 79 1015.4
20260905231304 89 81 2.0 6.0 0.00 0.00 0.00 78 1015.2
20260905230800 89 62 3.0 6.0 0.00 0.00 0.00 76 1015.1
20260905230258 90 58 3.0 6.0 0.00 0.00 0.00 76 1015.1
20260905225758 90 88 4.0 8.0 0.00 0.00 0.00 76 1015.1
20260905225253 90 53 4.0 8.0 0.00 0.00 0.00 76 1015.2
20260905224752 90 51 5.0 7.0 0.00 0.00 0.00 75 1015.2
20260905224248 90 52 6.0 9.0 0.00 0.00 0.00 76 1015.1
20260905223743 91 68 5.0 9.0 0.00 0.00 0.00 74 1015.2
20260905223240 91 348 2.0 8.0 0.00 0.00 0.00 74 1015.2
20260905222736 91 27 2.0 8.0 0.00 0.00 0.00 72 1015.5
20260905222234 91 56 3.0 11.0 0.00 0.00 0.00 72 1015.4
20260905221731 91 4 4.0 8.0 0.00 0.00 0.00 71 1015.1
20260905221227 92 330 4.0 6.0 0.00 0.00 0.00 73 1015.2
20260905220723 92 36 4.0 9.0 0.00 0.00 0.00 69 1015.3
20260905220219 92 38 4.0 6.0 0.00 0.00 0.00 70 1015.2
20260905215718 92 92 3.0 7.0 0.00 0.00 0.00 70 1015.4
20260905215214 92 358 2.0 8.0 0.00 0.00 0.00 70 1015.3
20260905214710 92 343 4.0 7.0 0.00 0.00 0.00 69 1015.3
20260905214205 92 67 4.0 8.0 0.00 0.00 0.00 70 1015.4
20260905213700 92 345 4.0 9.0 0.00 0.00 0.00 68 1015.2
20260905213156 92 30 5.0 6.0 0.00 0.00 0.00 70 1015.3
20260905212651 92 43 9.0 11.0 0.00 0.00 0.00 68 1015.5
20260905212150 92 346 7.0 10.0 0.00 0.00 0.00 69 1015.5
20260905211645 92 38 4.0 6.0 0.00 0.00 0.00 69 1015.4
20260905211140 92 0 5.0 10.0 0.00 0.00 0.00 68 1015.4
20260905210636 92 76 4.0 11.0 0.00 0.00 0.00 68 1015.3
20260905210131 92 31 7.0 9.0 0.00 0.00 0.00 69 1015.4
20260905205625 92 32 7.0 11.0 0.00 0.00 0.00 69 1015.5
20260905205124 92 7 10.0 13.0 0.00 0.00 0.00 68 1015.5
20260905204618 92 38 4.0 9.0 0.00 0.00 0.00 69 1015.7
20260905204114 91 7 5.0 9.0 0.00 0.00 0.00 70 1015.6
20260905203614 91 337 5.0 8.0 0.00 0.00 0.00 74 1015.7
20260905203109 91 352 5.0 7.0 0.00 0.00 0.00 71 1015.6
20260905202604 92 354 7.0 8.0 0.00 0.00 0.00 69 1015.8
20260905202059 92 3 5.0 9.0 0.00 0.00 0.00 73 1015.9
20260905201555 91 48 4.0 7.0 0.00 0.00 0.00 73 1015.8
20260905201054 91 34 4.0 8.0 0.00 0.00 0.00 73 1015.5
20260905200550 91 355 6.0 9.0 0.00 0.00 0.00 72 1015.9
20260905200044 91 19 6.0 7.0 0.00 0.00 0.00 73 1015.6
20260905195538 92 33 7.0 9.0 0.00 0.00 0.00 72 1016.0
20260905195033 92 18 6.0 8.0 0.00 0.00 0.00 71 1016.2
20260905194527 92 41 3.0 8.0 0.00 0.00 0.00 71 1015.9
20260905194027 93 350 6.0 8.0 0.00 0.00 0.00 70 1016.0
20260905193522 92 2 4.0 6.0 0.00 0.00 0.00 65 1016.1
20260905193017 92 4 7.0 10.0 0.00 0.00 0.00 66 1016.1
20260905192512 93 13 5.0 10.0 0.00 0.00 0.00 66 1016.0
20260905192009 93 321 6.0 7.0 0.00 0.00 0.00 64 1016.0
20260905191507 94 296 1.0 6.0 0.00 0.00 0.00 62 1016.0
20260905191006 95 269 5.0 8.0 0.00 0.00 0.00 60 1015.9
20260905190504 94 18 6.0 8.0 0.00 0.00 0.00 62 1016.0
20260905190004 94 0 7.0 10.0 0.00 0.00 0.00 64 1015.8
20260905185459 94 312 4.0 7.0 0.00 0.00 0.00 63 1016.3
20260905184957 94 347 2.0 7.0 0.00 0.00 0.00 61 1016.2
20260905184452 94 13 6.0 9.0 0.00 0.00 0.00 64 1016.1
20260905183951 94 36 5.0 7.0 0.00 0.00 0.00 63 1016.0
20260905183451 94 18 5.0 8.0 0.00 0.00 0.00 62 1016.2
20260905182946 94 10 4.0 7.0 0.00 0.00 0.00 61 1016.4
20260905182445 93 0 3.0 10.0 0.00 0.00 0.00 64 1016.5
20260905181940 93 347 4.0 4.0 0.00 0.00 0.00 68 1016.2
20260905181435 94 352 4.0 7.0 0.00 0.00 0.00 63 1016.2
20260905180934 94 347 4.0 7.0 0.00 0.00 0.00 64 1016.5
20260905180429 93 32 2.0 6.0 0.00 0.00 0.00 65 1016.8
20260905175924 93 296 5.0 6.0 0.00 0.00 0.00 64 1016.6
20260905175424 93 349 3.0 6.0 0.00 0.00 0.00 69 1016.6
20260905174919 93 353 7.0 8.0 0.00 0.00 0.00 65 1016.6
20260905174415 92 32 5.0 7.0 0.00 0.00 0.00 67 1016.6
20260905173910 92 312 4.0 6.0 0.00 0.00 0.00 67 1016.6
20260905173406 93 331 4.0 6.0 0.00 0.00 0.00 68 1016.7
20260905172901 92 17 4.0 7.0 0.00 0.00 0.00 68 1016.8
20260905172359 92 41 4.0 8.0 0.00 0.00 0.00 69 1016.9
20260905171855 92 307 4.0 7.0 0.00 0.00 0.00 72 1017.0
20260905171351 92 346 5.0 7.0 0.00 0.00 0.00 70 1016.9
20260905170847 91 264 2.0 6.0 0.00 0.00 0.00 69 1016.9
20260905170338 91 265 5.0 8.0 0.00 0.00 0.00 70 1016.7
20260905165837 92 190 2.0 6.0 0.00 0.00 0.00 70 1016.8
20260905165333 91 305 6.0 7.0 0.00 0.00 0.00 70 1016.8
20260905164832 91 312 5.0 7.0 0.00 0.00 0.00 70 1016.7
20260905164328 90 306 6.0 7.0 0.00 0.00 0.00 69 1016.9
20260905163823 90 317 5.0 7.0 0.00 0.00 0.00 71 1016.9
20260905163319 91 289 5.0 8.0 0.00 0.00 0.00 68 1016.7
20260905162815 91 308 6.0 7.0 0.00 0.00 0.00 69 1017.0
20260905162314 91 291 6.0 7.0 0.00 0.00 0.00 71 1016.8
20260905161809 91 307 6.0 8.0 0.00 0.00 0.00 69 1016.8
20260905161309 92 301 5.0 6.0 0.00 0.00 0.00 68 1016.9
20260905160807 91 323 3.0 7.0 0.00 0.00 0.00 71 1016.7
20260905160301 90 323 5.0 9.0 0.00 0.00 0.00 71 1016.7
20260905155756 90 296 6.0 8.0 0.00 0.00 0.00 71 1016.7
20260905155255 90 251 6.0 8.0 0.00 0.00 0.00 71 1016.9
20260905154749 90 303 5.0 8.0 0.00 0.00 0.00 73 1016.9
20260905154245 90 312 4.0 6.0 0.00 0.00 0.00 73 1016.8
20260905153740 89 289 6.0 7.0 0.00 0.00 0.00 74 1016.6
20260905153236 89 324 6.0 9.0 0.00 0.00 0.00 75 1016.7
20260905152730 89 325 3.0 8.0 0.00 0.00 0.00 74 1016.6
20260905152225 89 309 6.0 8.0 0.00 0.00 0.00 73 1016.5
20260905151724 89 298 9.0 10.0 0.00 0.00 0.00 73 1016.8
20260905151221 88 284 4.0 8.0 0.00 0.00 0.00 74 1016.5
20260905150715 88 316 5.0 7.0 0.00 0.00 0.00 74 1016.5
20260905150215 89 290 4.0 6.0 0.00 0.00 0.00 75 1016.4
20260905145712 88 251 5.0 6.0 0.00 0.00 0.00 76 1016.4
20260905145208 88 247 5.0 7.0 0.00 0.00 0.00 75 1016.6
20260905144706 87 294 4.0 6.0 0.00 0.00 0.00 77 1016.4
20260905144206 87 267 6.0 7.0 0.00 0.00 0.00 76 1016.5
20260905143705 87 320 5.0 8.0 0.00 0.00 0.00 77 1016.4
20260905143200 86 300 5.0 6.0 0.00 0.00 0.00 76 1016.5
20260905142659 86 313 6.0 8.0 0.00 0.00 0.00 74 1016.3
20260905142153 86 275 4.0 6.0 0.00 0.00 0.00 74 1016.3
20260905141648 86 277 2.0 6.0 0.00 0.00 0.00 76 1016.4
20260905141144 86 287 5.0 6.0 0.00 0.00 0.00 75 1016.2
20260905140640 85 256 4.0 6.0 0.00 0.00 0.00 75 1016.2
20260905140138 85 280 4.0 6.0 0.00 0.00 0.00 76 1016.5
20260905135634 84 263 2.0 4.0 0.00 0.00 0.00 77 1016.2
20260905135129 84 242 2.0 3.0 0.00 0.00 0.00 79 1015.9
20260905134623 83 338 3.0 3.0 0.00 0.00 0.00 79 1016.3